Location: *
(6.0000°S, 32.3997°W)
Time: 16:59:57
(UTC+00:00)

Cosmos 1420 Rocket - Pass Details

Date: 01 April 2020
Orbit: 755 x 780 km, 74.0° (Epoch: 27 May)

Event Time Altitude Azimuth Distance (km) Brightness Sun altitude
Rises 21:03:41 0° 344° (NNW) 3,201 7.5 -13.0°
Reaches altitude 10° 21:06:02 10° 343° (NNW) 2,277 6.7 -13.6°
Maximum altitude 21:11:11 74° 258° (WSW) 786 4.2 -14.9°
Drops below altitude 10° 21:16:21 10° 172° (S) 2,284 6.3 -16.2°
Sets 21:18:44 0° 170° (S) 3,213 7.1 -16.8°
